Volver al catálogo

CZ-6A DEB

ActivoPO
NORAD 61152·DEBRIS·🇨🇳 China

Lanzado Aug 6, 2024 desde Taiyuan Satellite Launch Center

Loading…

Próximos Pases (próximas 24 horas)

TLE

ActualizadoSource: Space-Track

Época: Sep 14, 2026, 10:52 UTC

1 61152U 24140QW  26257.45324073  .00001001  00000-0  21268-3 0  9990
2 61152  89.0327 263.2234 0112564 325.6343  33.7619 14.54451010109445

Sigue CZ-6A DEB en tiempo real con AllMySat

Download on the App Store